DateTimeUTC,F1_A11,F1_S11,BsB_S11,BsG_S11,BsR_S11,BbsB_S11,BbsG_S11,BbsR_S11,BaB_A11,BaG_A11,BaR_A11,Tu_S11,T_S11,Uu_S11,U_S11,P_S11,T1_A11
2021-09-02T12:00:00Z,00000200,01000000,,,,,,,0000.34,0000.13,0000.27,19.7,25.7,00.8,00.5,0677.8,31.5
2021-09-02T12:01:00Z,00000200,01000000,,,,,,,0000.26,0000.25,0000.17,19.7,25.8,00.9,00.6,0677.7,31.4
2021-09-02T12:02:00Z,00000200,01000000,,,,,,,0000.25,0000.38,0000.01,19.6,25.8,01.0,00.7,0677.7,31.3
2021-09-02T12:03:00Z,00000200,01000000,,,,,,,-000.10,-000.23,0000.06,19.6,25.8,01.1,00.8,0677.7,31.2
2021-09-02T12:04:00Z,00000200,01000000,,,,,,,-000.38,0000.08,0000.28,19.5,25.8,01.1,00.8,0677.7,31.2
2021-09-02T12:05:00Z,00000200,01000000,,,,,,,0000.41,-000.17,-000.54,19.4,25.8,01.1,00.7,0677.6,31.2
2021-09-02T12:06:00Z,00000200,01000000,,,,,,,-000.13,-000.23,-000.05,19.3,25.8,01.1,00.7,0677.7,31.1
2021-09-02T12:07:00Z,00000200,01000000,,,,,,,0000.04,0000.27,0000.06,19.2,25.8,01.1,00.7,0677.8,31.1
2021-09-02T12:08:00Z,00000200,01000000,,,,,,,-000.35,-000.17,-000.15,19.2,25.8,01.1,00.7,0677.8,31.1
2021-09-02T12:09:00Z,00000200,01000000,,,,,,,0000.56,0000.04,0000.06,19.1,25.8,01.2,00.8,0677.7,31.0
2021-09-02T12:10:00Z,00000200,41000000,,,,,,,-000.19,0000.12,0000.09,19.1,25.8,01.6,01.0,0677.7,31.0
2021-09-02T12:11:00Z,00000200,61000000,,,,,,,-000.11,-000.03,0000.06,19.1,25.7,01.1,00.7,0677.7,31.0
2021-09-02T12:12:00Z,00000200,21000000,,,,,,,0000.24,-000.05,0000.04,19.1,25.7,01.0,00.6,0677.8,31.0
2021-09-02T12:13:00Z,00000200,21000000,,,,,,,0000.18,0000.36,0000.31,19.0,25.7,00.9,00.6,0677.8,31.0
2021-09-02T12:14:00Z,00000200,21000000,,,,,,,0000.20,-000.06,0000.23,19.0,25.7,00.9,00.6,0677.8,31.0
2021-09-02T12:15:00Z,00000200,21000000,,,,,,,-000.04,0000.25,-000.13,19.0,25.7,00.9,00.6,0677.8,31.0
2021-09-02T12:16:00Z,00000200,61000000,,,,,,,0000.48,0000.33,0000.33,19.1,25.7,00.9,00.6,0677.8,31.1
2021-09-02T12:17:00Z,00000200,41000000,0002.46,0001.56,0000.89,0000.23,0000.10,0000.14,0000.28,0000.52,0000.25,19.3,25.7,01.1,00.7,0678.5,31.1
2021-09-02T12:18:00Z,00000200,01000000,0001.84,0001.80,0001.14,0000.42,0000.42,0000.15,0000.82,0000.02,0000.10,19.4,25.7,01.1,00.8,0678.8,31.1
2021-09-02T12:19:00Z,00000200,01000000,0001.89,0001.54,0000.85,-000.75,0000.32,0000.59,0000.02,0000.54,0000.41,19.4,25.7,01.2,00.8,0678.8,31.1
2021-09-02T12:20:00Z,00000200,01000000,0001.80,0001.82,0001.17,0000.48,0000.35,0000.51,0000.61,0000.53,0000.30,19.4,25.7,01.2,00.8,0678.8,31.0
2021-09-02T12:21:00Z,00000200,01000000,0002.16,0001.50,0000.89,0000.47,0000.04,0000.19,0000.41,0000.22,0000.56,19.4,25.7,01.2,00.8,0678.8,31.0
2021-09-02T12:22:00Z,00000200,01000000,0002.12,0000.93,0000.83,0000.28,0000.31,0000.45,0000.32,0000.54,-000.09,19.3,25.6,01.3,00.9,0678.8,31.0
2021-09-02T12:23:00Z,00000200,01000000,0001.65,0001.70,0001.21,0000.57,0000.46,0000.63,0000.12,-000.05,0000.18,19.3,25.6,01.2,00.8,0678.8,31.0
2021-09-02T12:24:00Z,00000200,01000000,0002.24,0001.61,0001.62,0000.11,0000.22,0000.60,-000.12,0000.43,0000.08,19.3,25.6,01.0,00.7,0678.8,31.0
2021-09-02T12:25:00Z,00000200,01000000,0001.61,0001.80,0001.03,0000.38,0000.53,0000.12,0000.53,0000.22,0000.35,19.2,25.5,01.0,00.7,0678.9,31.0
2021-09-02T12:26:00Z,00000200,01000000,0003.06,0001.88,0000.99,0000.20,0000.18,0000.32,0000.71,0000.18,0000.44,19.2,25.5,00.9,00.6,0678.8,31.0
2021-09-02T12:27:00Z,00000200,01000000,0002.02,0001.77,0001.24,-000.08,0000.31,0000.02,0000.48,0000.88,0000.60,19.2,25.5,00.9,00.6,0678.8,31.0
2021-09-02T12:28:00Z,00000200,01000000,0002.21,0001.43,0001.15,-000.19,0000.37,0000.06,0000.99,0000.66,0000.49,19.2,25.5,00.9,00.6,0678.8,31.0
2021-09-02T12:29:00Z,00000200,01000000,0002.01,0001.96,0001.11,0000.98,0000.64,0000.02,0000.38,0000.49,0000.40,19.2,25.5,01.0,00.7,0678.8,31.0
2021-09-02T12:30:00Z,00000200,01000000,0001.95,0001.75,0001.71,0000.22,0000.09,0000.67,0000.54,0000.31,0000.10,19.3,25.5,01.0,00.7,0678.8,31.0
2021-09-02T12:31:00Z,00000200,01000000,0002.32,0001.82,0001.29,-000.10,0000.37,0000.33,0000.46,0000.84,0000.64,19.3,25.6,01.0,00.7,0678.8,31.0
2021-09-02T12:32:00Z,00000200,01000000,0002.27,0002.02,0001.05,0000.28,0000.22,0000.25,0000.51,0000.65,0000.18,19.3,25.5,01.0,00.7,0678.8,31.1
2021-09-02T12:33:00Z,00000200,01000000,0002.93,0001.99,0001.43,0000.16,0000.46,0000.57,0000.64,0000.10,0000.17,19.2,25.5,01.0,00.7,0678.8,31.0
2021-09-02T12:34:00Z,00000200,01000000,0002.30,0002.02,0001.16,0000.37,0000.36,0000.41,0000.33,0000.41,0000.64,19.2,25.5,01.1,00.7,0678.9,31.0
2021-09-02T12:35:00Z,00000200,01000000,0002.68,0002.23,0001.28,-000.05,0000.27,0000.24,0000.58,0000.60,0000.52,19.2,25.5,01.1,00.7,0678.8,31.0
2021-09-02T12:36:00Z,00000200,01000000,0002.81,0001.72,0001.18,0000.23,0000.20,0000.11,0000.52,0000.51,0000.21,19.2,25.5,01.0,00.7,0678.8,31.0
2021-09-02T12:37:00Z,00000200,01000000,0003.56,0001.98,0001.67,0000.73,0000.22,0000.44,0000.42,0000.52,0000.26,19.1,25.5,01.2,00.8,0678.8,31.0
2021-09-02T12:38:00Z,00000200,01000000,0002.33,0002.02,0001.59,0000.56,0000.19,0000.67,0000.81,0000.03,0000.65,19.1,25.5,01.1,00.8,0678.9,31.0
2021-09-02T12:39:00Z,00000200,01000000,0003.63,0001.87,0001.15,0000.75,0000.58,-000.08,0000.35,0000.62,0000.03,19.1,25.5,01.2,00.8,0678.8,31.0
2021-09-02T12:40:00Z,00000200,01000000,0002.06,0002.30,0001.52,0000.74,0000.16,0000.66,0000.66,0000.70,0000.52,19.0,25.4,01.2,00.8,0678.8,31.0
2021-09-02T12:41:00Z,00000200,01000000,0002.34,0001.99,0001.54,0000.08,0000.23,0000.41,0000.61,0000.41,0000.37,19.0,25.4,01.3,00.8,0678.8,31.0
2021-09-02T12:42:00Z,00000200,01000000,0002.66,0002.08,0001.42,0000.07,0000.44,0000.61,0000.62,0000.71,0000.53,19.0,25.4,01.3,00.9,0678.7,31.0
2021-09-02T12:43:00Z,00000200,01000000,0002.68,0002.23,0001.73,0000.26,0000.51,0000.48,0000.97,0001.03,0000.61,19.0,25.4,01.2,00.8,0678.8,31.0
2021-09-02T12:44:00Z,00000200,01000000,0002.82,0002.20,0001.66,-000.06,0000.30,0000.71,0000.51,0000.55,0000.56,19.0,25.4,01.2,00.8,0678.8,31.0
2021-09-02T12:45:00Z,00000200,01000000,0002.79,0002.01,0001.14,0000.17,0000.40,0000.09,0000.65,0000.50,0000.38,19.1,25.4,01.4,00.9,0678.8,31.0
2021-09-02T12:46:00Z,00000200,01000000,0002.55,0001.86,0001.43,0000.44,0000.34,0000.56,0000.61,0000.53,0000.70,19.1,25.5,01.3,00.9,0678.8,31.0
2021-09-02T12:47:00Z,00000200,01000000,0002.87,0002.12,0001.62,0000.13,0000.65,0000.56,0000.75,0000.63,0000.41,19.1,25.5,01.3,00.9,0678.7,31.0
2021-09-02T12:48:00Z,00000200,01000000,0002.48,0002.19,0001.64,0000.29,0000.27,0000.56,0000.40,0000.68,0000.26,19.1,25.5,01.3,00.9,0678.7,31.0
2021-09-02T12:49:00Z,00000200,01000000,0003.20,0002.39,0001.78,0000.47,0000.42,0000.63,0000.82,0000.48,0000.35,19.1,25.5,01.3,00.9,0678.8,31.0
2021-09-02T12:50:00Z,00000200,01000000,0003.51,0002.36,0001.58,-000.25,0000.22,0000.69,0000.15,0000.32,0000.55,19.1,25.5,01.3,00.9,0678.8,31.0
2021-09-02T12:51:00Z,00000200,01000000,0002.90,0002.59,0001.73,0000.80,0000.28,0000.34,0000.72,0000.48,0000.27,19.0,25.4,01.3,00.9,0678.8,31.0
2021-09-02T12:52:00Z,00000200,01000000,0003.82,0002.44,0001.88,0000.15,0000.41,0000.34,0001.08,0001.03,0000.78,19.0,25.4,01.3,00.9,0678.8,31.0
2021-09-02T12:53:00Z,00000200,01000000,0003.52,0002.38,0001.89,0000.36,0000.64,0000.65,0000.71,0000.18,0000.38,19.0,25.4,01.3,00.9,0678.8,31.0
2021-09-02T12:54:00Z,00000200,01000000,0003.12,0002.22,0001.66,0001.05,0000.18,0000.33,0000.36,0000.96,0000.43,19.0,25.4,01.4,00.9,0678.7,31.0
2021-09-02T12:55:00Z,00000200,01000000,0003.59,0002.50,0001.61,0000.34,0000.21,0000.47,0001.15,0000.42,0000.54,18.9,25.4,01.3,00.9,0678.7,31.0
2021-09-02T12:56:00Z,00000200,01000000,0003.23,0002.49,0001.65,0000.21,0000.39,-000.07,0000.62,0001.05,0000.48,18.9,25.4,01.4,00.9,0678.8,31.0
2021-09-02T12:57:00Z,00000200,41000000,,,,,,,0000.02,0000.12,0000.33,18.9,25.4,01.6,01.1,0678.7,31.0
2021-09-02T12:58:00Z,00000200,61000000,,,,,,,0000.38,0000.25,-000.04,18.6,25.5,01.2,00.8,0677.8,31.0
2021-09-02T12:59:00Z,00000200,21000000,,,,,,,0000.11,0000.09,0000.37,18.6,25.6,01.2,00.8,0677.8,31.0
